Tracking 33197 objects as of 18-Feb-2026
HD Live streaming from Space Station
objects crossing your sky now

STARLINK-3366

Track STARLINK-3366 now!
10-day predictions
STARLINK-3366 is classified as:


NORAD ID: 51104
Int'l Code: 2022-005A
Perigee: 545.7 km
Apogee: 548.2 km
Inclination: 53.2 °
Period: 95.4 minutes
Semi major axis: 6917 km
RCS: Unknown
Launch date: January 19, 2022
Source: United States (US)
Launch site: AIR FORCE EASTERN TEST RANGE (AFETR)
Your satellite tracking list
Your tracking list is empty




NASA's NSSDC Master Catalog

Two Line Element Set (TLE):
1 51104U 22005A   26049.13247423  .00004573  00000-0  30551-3 0  9993
2 51104  53.2188  16.9189 0001821  97.6671 262.4528 15.08807583225926
Source of the keplerian elements: AFSPC